Location: Voyageurs National Park
(48.5020°N, 92.9292°W)
Time: 03:56:53
(UTC-06:00)

Daily predictions for brighter satellites

Satellite Brightness Start Highest point End
(mag) Time Altitude Azimuth Time Altitude Azimuth Time Altitude Azimuth
ATLAS 2AS CENTAUR R/B 4.3 04:07:56 28° N 04:09:05 29° N 04:15:53 10° ENE
SL-16 R/B 3.3 04:22:49 41° E 04:22:49 41° E 04:26:52 10° SE
Cosmos 2297 Rocket 2.9 04:33:23 48° ESE 04:33:25 48° ESE 04:38:51 10° NE
COSMO-SKYMED 1 4.4 04:36:53 10° SE 04:39:28 29° ESE 04:39:28 29° ESE
USA 234 3.6 04:35:50 10° E 04:42:13 56° NNE 04:43:00 53° N
NOSS 3-1 (C) 4.3 04:41:10 45° NNW 04:43:21 61° NE 04:51:23 10° ESE
Cosmos 2227 Rocket 2.5 04:46:54 61° NE 04:46:54 61° NE 04:51:35 10° NNE
Meteor 2-17 Rocket 4.2 05:01:22 76° SSW 05:01:54 86° WNW 05:08:00 10° N
Cosmos 1818 4.1 05:04:09 48° N 05:04:09 48° N 05:08:18 10° NE
Tsikada Rocket 3.9 05:04:33 60° NNW 05:05:45 77° W 05:12:03 10° S
ATLAS CENTAUR R/B 4.1 05:09:39 10° N 05:09:39 10° N 05:09:47 10° NNE
ATLAS CENTAUR R/B 3.7 05:14:03 24° NNE 05:14:03 24° NNE 05:18:26 10° ENE
Cosmos 2082 3.5 05:14:48 74° WNW 05:14:58 75° WNW 05:20:45 10° NNE
SeaSat 1 3.0 05:18:38 10° NNE 05:22:19 43° NNW 05:22:19 43° NNW
ADEOS II 3.8 05:19:59 10° N 05:21:31 19° N 05:21:31 19° N
Cosmos 1603 4.1 05:22:14 26° NNW 05:25:22 60° ENE 05:30:56 10° SE
SKYMED 2 3.7 05:24:32 10° S 05:28:08 59° S 05:28:08 59° S
Cosmos 968 Rocket 3.9 05:24:09 10° S 05:29:20 62° ESE 05:34:33 10° NNE
NOAA 6 3.9 05:27:19 10° NNE 05:32:32 86° WNW 05:37:44 10° SSW
SL-24 R/B 4.5 05:27:58 10° NNE 05:32:38 80° ESE 05:38:05 10° SSW
Cosmos 1864 Rocket 4.4 05:30:26 20° SSW 05:34:39 57° WNW 05:40:45 10° N
Cosmos 1725 Rocket 4.0 05:28:34 10° SSW 05:34:42 57° WNW 05:40:56 10° N
Cosmos 773 Rocket 4.2 05:32:36 23° NNW 05:35:55 71° ENE 05:41:12 10° SSE
USA 229 DEB 4.1 05:38:23 39° W 05:39:24 41° WSW 05:46:02 10° S
USA 229 4.1 05:38:26 39° W 05:39:30 41° WSW 05:46:09 10° S
Cosmos 1328 4.0 05:40:34 54° SSW 05:40:34 54° SSW 05:43:46 10° S
Cosmos 304 Rocket 4.0 05:43:29 46° SW 05:43:29 46° SW 05:47:36 10° S
ISS -1.4 05:48:48 20° S 05:48:48 20° S 05:50:23 10° SSE
Cosmos 2221 3.4 05:46:43 10° S 05:50:55 50° E 05:55:06 10° NNE
CSL-04 Rocket 4.1 05:46:35 10° NNE 05:51:51 60° ESE 05:57:04 10° S
NOSS 3-1 (A) 4.0 05:48:20 24° NW 05:53:21 84° SW 06:01:40 10° SE
Genesis I 3.1 05:53:48 57° WNW 05:54:30 77° SW 05:58:25 10° SSE
Cosmos 2058 2.7 05:52:01 21° N 05:54:46 85° W 05:58:54 10° S
Cosmos 1184 Rocket 4.4 05:54:04 10° N 05:57:11 36° ENE 06:00:16 10° SE
ATLAS 2AS CENTAUR R/B 3.7 05:55:21 15° NW 06:02:04 51° NE 06:09:38 10° ESE
Cosmos 1777 Rocket 4.4 05:57:52 10° S 06:03:01 64° ESE 06:08:10 10° NNE
SL-16 R/B 2.9 06:04:45 29° W 06:05:12 30° WSW 06:10:02 10° SSW
SL-8 R/B 3.8 06:03:57 35° W 06:05:48 62° SSW 06:10:32 10° ESE
Cosmos 1703 3.3 06:05:07 10° N 06:09:04 82° E 06:12:59 10° SSE
IDEFIX/ARIANE 42P 3.5 06:09:33 10° NNE 06:14:42 51° E 06:19:50 10° S
Cosmos 1842 Rocket 4.0 06:12:21 10° SW 06:16:22 36° WNW 06:20:27 10° N
COSMO-SKYMED 1 3.6 06:13:28 10° SSW 06:16:41 25° WSW 06:16:41 25° WSW
Cosmos 2297 Rocket 2.8 06:15:15 24° W 06:17:39 34° NW 06:22:48 10° NNE
Cosmos 2151 3.4 06:16:06 26° NW 06:17:48 37° W 06:21:42 10° SSW
ERBS 3.4 06:18:03 28° WSW 06:18:26 29° SW 06:21:25 10° SSE
Cosmos 1356 Rocket 3.3 06:15:08 10° NNW 06:19:13 85° W 06:23:22 10° S
Helios 1B rocket 3.2 06:15:40 10° SSE 06:19:40 52° ENE 06:23:41 10° N
Cosmos 1805 Rocket 3.5 06:17:33 10° NNW 06:22:00 74° W 06:26:22 10° S
Cosmos 1340 Rocket 3.1 06:20:03 22° NW 06:22:09 41° W 06:25:52 10° SSW
Meteor 1-4 Rocket 3.4 06:22:59 28° W 06:23:43 30° WNW 06:27:07 10° N
Cosmos 2233 Rocket 4.4 06:18:16 10° SW 06:24:05 40° WNW 06:30:01 10° N
USA 234 3.3 06:18:35 10° SE 06:25:08 70° SW 06:30:20 17° WNW
Cosmos 1271 Rocket 2.8 06:24:47 10° SSW 06:28:29 47° WNW 06:32:10 10° N
Meteor 1-28 Rocket 4.2 06:27:18 10° SSW 06:30:24 24° W 06:30:52 24° W
Cosmos 2227 Rocket 3.3 06:28:45 20° WNW 06:30:37 24° NW 06:35:10 10° N
SL-14 R/B 4.4 06:31:11 22° WNW 06:32:13 25° W 06:35:34 10° SW
Cosmos 923 Rocket 4.0 06:27:23 10° NNW 06:32:27 59° WSW 06:37:35 10° S
BREEZE-M DEB (TANK) 1.9 06:31:03 26° WNW 06:32:35 88° N 06:34:42 10° ESE
Meteor 1-16 Rocket 4.3 06:28:32 10° SW 06:33:42 45° WNW 06:38:49 10° N
Meteor 1-29 3.8 06:30:44 10° SSE 06:34:09 54° ENE 06:37:36 10° N
NOSS 3-1 (C) 4.4 06:28:35 16° NW 06:34:17 45° WSW 06:42:00 10° S
Ariane Rocket 3.1 06:30:03 10° N 06:35:00 51° WNW 06:39:56 10° SW
SJ-12 3.9 06:34:21 10° NNE 06:38:28 89° WNW 06:42:32 10° SSW
Cosmos 292 Rocket 3.9 06:34:08 10° NNW 06:38:46 56° WSW 06:43:26 10° S
Cosmos 1626 2.2 06:36:38 10° NNW 06:40:19 55° W 06:43:58 10° S
Cosmos 1680 Rocket 3.5 06:36:06 10° NNW 06:41:21 64° WSW 06:46:36 10° S
IRS-1A Rocket 4.3 06:36:50 10° NNE 06:42:46 81° WNW 06:48:36 10° SSW
Cosmos 2034 Rocket 3.9 06:37:19 10° SSW 06:43:30 76° W 06:49:48 10° N
Sich 1 3.0 06:42:46 10° NNW 06:47:07 62° W 06:51:23 10° S
Nadezhda 4 Rocket 4.0 06:40:59 10° NNW 06:47:20 77° W 06:53:37 10° S
Cosmos 1943 3.2 06:42:43 10° NNW 06:48:25 71° WSW 06:54:04 10° SSE
SMAP 3.1 06:43:53 10° NNE 06:48:34 88° E 06:53:14 10° SSW
Cosmos 1633 Rocket 3.0 06:45:04 10° NNW 06:49:25 67° W 06:53:42 10° S
CZ-2C R/B 2.2 06:48:07 10° N 06:52:45 75° WNW 06:57:18 10° SSW
Iridium 4 Rocket 4.0 06:49:46 10° N 06:53:54 51° E 06:58:14 10° SSE
CZ-4 R/B 1.4 06:50:42 10° N 06:54:41 61° WNW 06:58:43 10° SSW
Cosmos 389 Rocket 2.6 06:51:50 10° S 06:55:30 86° ESE 06:59:13 10° NNE
Cosmos 1328 Rocket 3.9 06:52:42 10° S 06:57:01 70° E 07:01:23 10° NNE
Tiangong 2 4.4 06:58:02 10° SSE 06:58:44 11° SSE 06:59:25 10° SE
SeaSat 1 4.2 06:57:39 10° N 07:00:03 14° NW 07:02:08 11° WNW
PAYLOAD A 4.2 06:56:32 10° N 07:01:25 46° WNW 07:06:05 10° SW
COSMOS 2406 4.4 06:56:42 10° NNW 07:02:09 41° NE 07:07:35 10° ESE
CSL-04 Debris 4.5 06:57:46 10° N 07:02:59 45° WNW 07:08:09 10° SW
Cosmos 1515 Rocket 4.2 06:59:02 10° S 07:03:22 62° E 07:07:47 10° NNE
CORIOLIS 4.2 06:58:37 10° NNE 07:04:05 87° WNW 07:09:31 10° SSW
Cosmos 1092 Rocket 4.0 06:57:47 10° N 07:04:07 79° W 07:10:21 10° S
YAOGAN 1 2.5 07:03:08 10° N 07:07:27 68° WNW 07:11:45 10° SSW
Coronas F rocket 2.1 07:06:27 10° NW 07:08:32 25° W 07:10:35 10° SSW
COSMOS 2441 4.3 07:08:17 10° NNE 07:13:07 84° WNW 07:17:54 10° SSW
Cosmos 1151 Rocket 3.9 07:10:51 10° S 07:15:02 55° E 07:19:13 10° NNE
Cosmos 1908 3.3 07:11:24 10° SSW 07:15:08 52° WNW 07:18:55 10° N
Cosmos 2263 Rocket 2.5 07:13:01 10° SSW 07:18:41 77° ESE 07:24:24 10° NNE
MSX 3.8 07:19:58 10° N 07:25:43 69° WNW 07:31:26 10° SSW
